EN

Hourly Weather Luki

Today, 14 May, Friday

Time Temperature Precipitation Wind Pressure Humidity
00:00 +7°C° 0.1 mm 4 mps 739 mmHg 91%
01:00 +7°C° 0.1 mm 5 mps 739 mmHg 91%
02:00 +8°C° 0 mm 5 mps 739 mmHg 92%
03:00 +8°C° 0.1 mm 5 mps 739 mmHg 92%
04:00 +8°C° 0.1 mm 5 mps 739 mmHg 92%
05:00 +9°C° 0.1 mm 5 mps 739 mmHg 92%
06:00 +9°C° 0.1 mm 5 mps 739 mmHg 92%
07:00 +9°C° 0.1 mm 6 mps 739 mmHg 92%
08:00 +9°C° 0 mm 6 mps 739 mmHg 93%
09:00 +10°C° 0.1 mm 6 mps 739 mmHg 91%
10:00 +10°C° 0.1 mm 5 mps 739 mmHg 89%
11:00 +12°C° 0.1 mm 5 mps 739 mmHg 88%
12:00 +14°C° 0 mm 5 mps 739 mmHg 80%
13:00 +16°C° 0 mm 5 mps 738 mmHg 72%
14:00 +19°C° 0 mm 6 mps 738 mmHg 64%
15:00 +19°C° 0.4 mm 5 mps 737 mmHg 67%
16:00 +19°C° 0.4 mm 4 mps 737 mmHg 71%
17:00 +19°C° 0.4 mm 3 mps 737 mmHg 75%
18:00 +17°C° 0.8 mm 3 mps 736 mmHg 80%
19:00 +16°C° 0.8 mm 3 mps 736 mmHg 86%
20:00 +13°C° 0.8 mm 3 mps 736 mmHg 92%
21:00 +13°C° 0.2 mm 3 mps 736 mmHg 93%
22:00 +12°C° 0.2 mm 3 mps 736 mmHg 94%
23:00 +12°C° 0.2 mm 3 mps 736 mmHg 96%

Tomorrow, 15 May, Saturday

Time Temperature Precipitation Wind Pressure Humidity
00:00 +11°C° 0.1 mm 3 mps 736 mmHg 96%
01:00 +12°C° 0.1 mm 2 mps 735 mmHg 96%
02:00 +10°C° 0.1 mm 2 mps 735 mmHg 96%
03:00 +10°C° 0 mm 2 mps 736 mmHg 96%
04:00 +10°C° 0 mm 2 mps 736 mmHg 96%
05:00 +9°C° 0 mm 2 mps 736 mmHg 96%
06:00 +10°C° 0 mm 3 mps 736 mmHg 94%
07:00 +11°C° 0 mm 3 mps 736 mmHg 91%
08:00 +12°C° 0 mm 3 mps 736 mmHg 88%
09:00 +13°C° 0.2 mm 4 mps 736 mmHg 85%
10:00 +14°C° 0.2 mm 4 mps 736 mmHg 83%
11:00 +15°C° 0.2 mm 4 mps 736 mmHg 80%
12:00 +15°C° 0.4 mm 5 mps 737 mmHg 82%
13:00 +15°C° 0.4 mm 5 mps 737 mmHg 84%
14:00 +15°C° 0.4 mm 5 mps 737 mmHg 86%
15:00 +15°C° 0.2 mm 5 mps 737 mmHg 86%
16:00 +15°C° 0.2 mm 5 mps 737 mmHg 86%
17:00 +15°C° 0.2 mm 4 mps 737 mmHg 85%
18:00 +14°C° 0.2 mm 4 mps 737 mmHg 89%
19:00 +13°C° 0.2 mm 4 mps 737 mmHg 92%
20:00 +12°C° 0.2 mm 3 mps 737 mmHg 95%
21:00 +12°C° 0.2 mm 3 mps 737 mmHg 95%
22:00 +11°C° 0.2 mm 3 mps 737 mmHg 96%
23:00 +11°C° 0.2 mm 3 mps 737 mmHg 96%

Day after tomorrow, 16 May, Sunday

Time Temperature Precipitation Wind Pressure Humidity
00:00 +11°C° 0.1 mm 3 mps 737 mmHg 96%
01:00 +10°C° 0.1 mm 3 mps 738 mmHg 96%
02:00 +10°C° 0.1 mm 3 mps 738 mmHg 97%
03:00 +10°C° 0.3 mm 2 mps 738 mmHg 97%
04:00 +12°C° 0.3 mm 2 mps 738 mmHg 97%
05:00 +12°C° 0.3 mm 2 mps 739 mmHg 98%
06:00 +13°C° 0.2 mm 2 mps 739 mmHg 95%
07:00 +14°C° 0.2 mm 2 mps 739 mmHg 92%
08:00 +15°C° 0.2 mm 2 mps 740 mmHg 89%
09:00 +16°C° 0.2 mm 2 mps 740 mmHg 83%
10:00 +17°C° 0.2 mm 2 mps 740 mmHg 78%
11:00 +18°C° 0.2 mm 3 mps 740 mmHg 72%
12:00 +19°C° 0.7 mm 3 mps 740 mmHg 72%
13:00 +19°C° 0.7 mm 3 mps 740 mmHg 71%
14:00 +19°C° 0.7 mm 3 mps 740 mmHg 70%
15:00 +19°C° 0.3 mm 3 mps 740 mmHg 72%
16:00 +19°C° 0.3 mm 3 mps 740 mmHg 75%
17:00 +18°C° 0.3 mm 3 mps 740 mmHg 77%
18:00 +17°C° 0.1 mm 3 mps 740 mmHg 80%
19:00 +15°C° 0.1 mm 2 mps 740 mmHg 83%
20:00 +14°C° 0.1 mm 2 mps 740 mmHg 86%
21:00 +14°C° 0 mm 2 mps 740 mmHg 88%
22:00 +12°C° 0 mm 3 mps 740 mmHg 90%
23:00 +12°C° 0 mm 3 mps 740 mmHg 92%

17 May, Monday

Time Temperature Precipitation Wind Pressure Humidity
00:00 +11°C° 0 mm 3 mps 740 mmHg 92%
01:00 +11°C° 0 mm 3 mps 740 mmHg 93%
02:00 +11°C° 0 mm 3 mps 740 mmHg 93%
03:00 +11°C° 0 mm 3 mps 739 mmHg 94%
04:00 +11°C° 0 mm 3 mps 739 mmHg 94%
05:00 +11°C° 0 mm 3 mps 739 mmHg 94%
06:00 +13°C° 0 mm 3 mps 739 mmHg 90%
07:00 +14°C° 0 mm 4 mps 739 mmHg 86%
08:00 +17°C° 0 mm 4 mps 739 mmHg 82%
09:00 +18°C° 0.1 mm 4 mps 738 mmHg 79%
10:00 +19°C° 0.1 mm 4 mps 738 mmHg 76%
11:00 +20°C° 0.1 mm 4 mps 738 mmHg 73%
12:00 +20°C° 0.7 mm 3 mps 737 mmHg 76%
13:00 +20°C° 0.7 mm 3 mps 736 mmHg 79%
14:00 +20°C° 0.7 mm 2 mps 736 mmHg 82%
15:00 +19°C° 1.6 mm 3 mps 735 mmHg 84%
16:00 +19°C° 1.6 mm 3 mps 734 mmHg 87%
17:00 +18°C° 1.6 mm 4 mps 733 mmHg 89%
18:00 +17°C° 3.2 mm 4 mps 734 mmHg 91%
19:00 +14°C° 3.2 mm 4 mps 734 mmHg 92%
20:00 +13°C° 3.2 mm 4 mps 734 mmHg 94%
21:00 +13°C° 0 mm 3 mps 735 mmHg 95%
22:00 +12°C° 0 mm 3 mps 735 mmHg 95%
23:00 +13°C° 0 mm 2 mps 735 mmHg 96%

18 May, Tuesday

Time Temperature Precipitation Wind Pressure Humidity
00:00 +12°C° 0 mm 2 mps 735 mmHg 97%
01:00 +12°C° 0 mm 2 mps 735 mmHg 97%
02:00 +10°C° 0 mm 2 mps 735 mmHg 97%
03:00 +10°C° 0 mm 2 mps 736 mmHg 97%
04:00 +12°C° 0 mm 1 mps 736 mmHg 96%
05:00 +12°C° 0 mm 1 mps 736 mmHg 96%
06:00 +13°C° 0 mm 1 mps 736 mmHg 93%
07:00 +14°C° 0 mm 1 mps 736 mmHg 90%
08:00 +15°C° 0 mm 1 mps 736 mmHg 87%
09:00 +16°C° 0.1 mm 1 mps 736 mmHg 83%
10:00 +17°C° 0.1 mm 2 mps 736 mmHg 78%
11:00 +18°C° 0.1 mm 2 mps 737 mmHg 73%
12:00 +18°C° 0.2 mm 2 mps 736 mmHg 72%
13:00 +18°C° 0.2 mm 2 mps 736 mmHg 70%
14:00 +18°C° 0.2 mm 2 mps 736 mmHg 68%
15:00 +18°C° 0.2 mm 2 mps 736 mmHg 68%
16:00 +19°C° 0.2 mm 1 mps 736 mmHg 69%
17:00 +19°C° 0.2 mm 1 mps 736 mmHg 69%
18:00 +18°C° 0 mm 1 mps 736 mmHg 73%
19:00 +15°C° 0 mm 1 mps 736 mmHg 78%
20:00 +14°C° 0 mm 1 mps 736 mmHg 82%
21:00 +13°C° 0 mm 1 mps 736 mmHg 83%
22:00 +13°C° 0 mm 1 mps 736 mmHg 84%
23:00 +12°C° 0 mm 1 mps 736 mmHg 86%

19 May, Wednesday

Time Temperature Precipitation Wind Pressure Humidity
00:00 +12°C° 0 mm 1 mps 736 mmHg 87%
01:00 +10°C° 0 mm 2 mps 735 mmHg 89%
02:00 +10°C° 0 mm 2 mps 735 mmHg 91%
03:00 +10°C° 0 mm 2 mps 735 mmHg 91%
04:00 +10°C° 0 mm 2 mps 735 mmHg 91%
05:00 +12°C° 0 mm 2 mps 734 mmHg 91%
06:00 +12°C° 1.6 mm 2 mps 734 mmHg 93%
07:00 +12°C° 1.6 mm 2 mps 734 mmHg 95%
08:00 +12°C° 1.6 mm 2 mps 734 mmHg 97%
09:00 +12°C° 1.7 mm 3 mps 734 mmHg 96%
10:00 +12°C° 1.7 mm 3 mps 734 mmHg 95%
11:00 +12°C° 1.7 mm 4 mps 733 mmHg 95%
12:00 +12°C° 0.9 mm 5 mps 734 mmHg 94%
13:00 +11°C° 0.9 mm 6 mps 734 mmHg 94%
14:00 +11°C° 0.9 mm 7 mps 734 mmHg 93%
15:00 +10°C° 0.8 mm 6 mps 735 mmHg 93%
16:00 +10°C° 0.8 mm 6 mps 735 mmHg 93%
17:00 +10°C° 0.8 mm 6 mps 736 mmHg 93%
18:00 +10°C° 0.1 mm 5 mps 736 mmHg 93%
19:00 +11°C° 0.1 mm 4 mps 737 mmHg 92%
20:00 +11°C° 0.1 mm 4 mps 738 mmHg 92%
21:00 +10°C° 0 mm 3 mps 738 mmHg 93%
22:00 +10°C° 0 mm 3 mps 739 mmHg 94%
23:00 +9°C° 0 mm 3 mps 739 mmHg 95%
Show more